Location: Franzen
(48.6167°N, 15.3833°E)
Time: 16:46:42
(UTC+00:00)

Cosmos 2219 - Pass Details

Date: 03 August 2021
Orbit: 834 x 860 km, 71.1° (Epoch: 18 September)

Event Time Altitude Azimuth Distance (km) Brightness Sun altitude
Exits shadow 01:11:23 - 275° (W) 3,193 5.9 -18.1°
Reaches altitude 10° 01:14:16 10° 295° (WNW) 2,501 5.6 -17.9°
Maximum altitude 01:17:21 15° 328° (NNW) 2,193 5.6 -17.6°
Drops below altitude 10° 01:20:27 10° 1° (N) 2,507 6.5 -17.3°
Sets 01:24:12 0° 25° (NNE) 3,446 8.0 -17.0°
